Terminal Aerodrome Forecast
Issued by NWS Springfield, MO

Home | Current Version | Previous Version | Text Only | Print | Product List | Glossary Off
Versions: 1 2 3 4 5 6 7 8 9 10 11 12 13 14 15 16 17 18 19 20 21

000
FTUS43 KSGF 021700
TAFSGF
TAF
KSGF 021739Z 0218/0318 21005KT P6SM BKN012
     FM030100 VRB04KT P6SM SCT030 BKN080
      TEMPO 0309/0312 4SM BR OVC009
     FM031500 35005KT P6SM OVC015=

USA.gov is the U.S. government's official web portal to all federal, state and local government web resources and services.